• In Deutschland
  • Länderverzeichnis
  • Für 7 Tage
  • Wassertemperatur
  • Satellitenkarten
  • Wetterkarte
  • Widgets
  • user-avatar
    Anmelden

    Stündliche Wetter München

    Heute, 19 Juni, Dienstag

    Zeit Temperatur Niederschläge Wind Luftdruck Luftfeuchtigkeit
    00:00 +14°C° 0 mm 1 m/S 721 mmHg 89%
    01:00 +14°C° 0 mm 1 m/S 721 mmHg 90%
    02:00 +13°C° 0 mm 1 m/S 721 mmHg 91%
    03:00 +13°C° 0 mm 1 m/S 721 mmHg 92%
    04:00 +13°C° 0 mm 1 m/S 722 mmHg 92%
    05:00 +14°C° 0 mm 1 m/S 722 mmHg 89%
    06:00 +15°C° 0 mm 1 m/S 722 mmHg 86%
    07:00 +18°C° 0 mm 1 m/S 722 mmHg 83%
    08:00 +19°C° 0 mm 1 m/S 722 mmHg 77%
    09:00 +21°C° 0 mm 1 m/S 722 mmHg 71%
    10:00 +23°C° 0 mm 1 m/S 722 mmHg 65%
    11:00 +24°C° 0 mm 1 m/S 722 mmHg 63%
    12:00 +24°C° 0 mm 2 m/S 722 mmHg 60%
    13:00 +25°C° 0 mm 2 m/S 722 mmHg 57%
    14:00 +25°C° 0 mm 2 m/S 722 mmHg 58%
    15:00 +25°C° 0 mm 2 m/S 722 mmHg 59%
    16:00 +25°C° 0 mm 2 m/S 722 mmHg 60%
    17:00 +24°C° 0 mm 2 m/S 722 mmHg 67%
    18:00 +23°C° 0 mm 2 m/S 722 mmHg 73%
    19:00 +23°C° 0 mm 1 m/S 722 mmHg 80%
    20:00 +21°C° 0 mm 1 m/S 722 mmHg 84%
    21:00 +19°C° 0 mm 1 m/S 722 mmHg 88%
    22:00 +18°C° 0 mm 1 m/S 722 mmHg 92%
    23:00 +18°C° 0 mm 1 m/S 722 mmHg 92%

    Morgen, 20 Juni, Mittwoch

    Zeit Temperatur Niederschläge Wind Luftdruck Luftfeuchtigkeit
    00:00 +16°C° 0 mm 1 m/S 722 mmHg 92%
    01:00 +16°C° 0 mm 1 m/S 722 mmHg 93%
    02:00 +16°C° 0 mm 1 m/S 722 mmHg 93%
    03:00 +15°C° 0 mm 1 m/S 722 mmHg 93%
    04:00 +15°C° 0 mm 1 m/S 721 mmHg 94%
    05:00 +16°C° 0 mm 1 m/S 721 mmHg 90%
    06:00 +19°C° 0 mm 1 m/S 722 mmHg 86%
    07:00 +20°C° 0 mm 1 m/S 722 mmHg 82%
    08:00 +22°C° 0 mm 1 m/S 722 mmHg 76%
    09:00 +23°C° 0 mm 1 m/S 722 mmHg 70%
    10:00 +25°C° 0 mm 2 m/S 722 mmHg 64%
    11:00 +26°C° 0 mm 2 m/S 721 mmHg 62%
    12:00 +26°C° 0 mm 2 m/S 721 mmHg 60%
    13:00 +27°C° 0 mm 2 m/S 721 mmHg 58%
    14:00 +27°C° 0 mm 3 m/S 720 mmHg 59%
    15:00 +27°C° 0 mm 3 m/S 720 mmHg 60%
    16:00 +27°C° 0 mm 3 m/S 720 mmHg 62%
    17:00 +26°C° 0,1 mm 2 m/S 720 mmHg 67%
    18:00 +25°C° 0,1 mm 2 m/S 720 mmHg 73%
    19:00 +24°C° 0,1 mm 2 m/S 720 mmHg 78%
    20:00 +23°C° 0 mm 2 m/S 720 mmHg 83%
    21:00 +21°C° 0 mm 1 m/S 720 mmHg 87%
    22:00 +20°C° 0 mm 1 m/S 720 mmHg 91%
    23:00 +19°C° 0 mm 1 m/S 719 mmHg 92%

    übermorgen, 21 Juni, Donnerstag

    Zeit Temperatur Niederschläge Wind Luftdruck Luftfeuchtigkeit
    00:00 +19°C° 0 mm 1 m/S 719 mmHg 92%
    01:00 +18°C° 0 mm 1 m/S 719 mmHg 93%
    02:00 +18°C° 0 mm 1 m/S 719 mmHg 94%
    03:00 +18°C° 0 mm 1 m/S 718 mmHg 94%
    04:00 +16°C° 0 mm 1 m/S 718 mmHg 94%
    05:00 +19°C° 0 mm 1 m/S 718 mmHg 91%
    06:00 +20°C° 0 mm 1 m/S 718 mmHg 87%
    07:00 +21°C° 0 mm 1 m/S 718 mmHg 84%
    08:00 +23°C° 0 mm 1 m/S 717 mmHg 78%
    09:00 +25°C° 0 mm 2 m/S 717 mmHg 72%
    10:00 +27°C° 0 mm 2 m/S 717 mmHg 66%
    11:00 +27°C° 0,2 mm 2 m/S 717 mmHg 64%
    12:00 +28°C° 0,2 mm 3 m/S 716 mmHg 61%
    13:00 +29°C° 0,2 mm 3 m/S 716 mmHg 59%
    14:00 +28°C° 0,5 mm 4 m/S 715 mmHg 61%
    15:00 +28°C° 0,5 mm 4 m/S 715 mmHg 64%
    16:00 +28°C° 0,5 mm 4 m/S 715 mmHg 66%
    17:00 +26°C° 0,7 mm 4 m/S 715 mmHg 74%
    18:00 +23°C° 0,7 mm 4 m/S 715 mmHg 81%
    19:00 +21°C° 0,7 mm 3 m/S 716 mmHg 89%
    20:00 +20°C° 0,5 mm 4 m/S 716 mmHg 90%
    21:00 +18°C° 0,5 mm 4 m/S 717 mmHg 92%
    22:00 +17°C° 0,5 mm 4 m/S 718 mmHg 93%
    23:00 +15°C° 0,2 mm 4 m/S 718 mmHg 93%

    22 Juni, Freitag

    Zeit Temperatur Niederschläge Wind Luftdruck Luftfeuchtigkeit
    00:00 +13°C° 0,2 mm 3 m/S 718 mmHg 92%
    01:00 +12°C° 0,2 mm 3 m/S 718 mmHg 91%
    02:00 +11°C° 0,1 mm 3 m/S 718 mmHg 90%
    03:00 +12°C° 0,1 mm 2 m/S 718 mmHg 89%
    04:00 +10°C° 0,1 mm 2 m/S 719 mmHg 88%
    05:00 +10°C° 0 mm 2 m/S 719 mmHg 87%
    06:00 +10°C° 0 mm 2 m/S 719 mmHg 86%
    07:00 +10°C° 0 mm 2 m/S 719 mmHg 84%
    08:00 +12°C° 0 mm 2 m/S 719 mmHg 77%
    09:00 +12°C° 0 mm 3 m/S 719 mmHg 69%
    10:00 +13°C° 0 mm 3 m/S 720 mmHg 61%
    11:00 +14°C° 0 mm 3 m/S 720 mmHg 59%
    12:00 +15°C° 0 mm 4 m/S 719 mmHg 57%
    13:00 +17°C° 0 mm 4 m/S 719 mmHg 55%
    14:00 +15°C° 0 mm 4 m/S 719 mmHg 56%
    15:00 +15°C° 0 mm 4 m/S 720 mmHg 57%
    16:00 +15°C° 0 mm 4 m/S 720 mmHg 58%
    17:00 +14°C° 0 mm 3 m/S 720 mmHg 62%
    18:00 +14°C° 0 mm 3 m/S 720 mmHg 67%
    19:00 +14°C° 0 mm 2 m/S 720 mmHg 72%
    20:00 +13°C° 0 mm 2 m/S 721 mmHg 75%
    21:00 +11°C° 0 mm 1 m/S 721 mmHg 79%
    22:00 +10°C° 0 mm 1 m/S 721 mmHg 82%
    23:00 +9°C° 0 mm 1 m/S 721 mmHg 84%

    23 Juni, Samstag

    Zeit Temperatur Niederschläge Wind Luftdruck Luftfeuchtigkeit
    00:00 +9°C° 0 mm 1 m/S 721 mmHg 85%
    01:00 +9°C° 0 mm 1 m/S 721 mmHg 87%
    02:00 +8°C° 0 mm 1 m/S 721 mmHg 89%
    03:00 +8°C° 0 mm 1 m/S 721 mmHg 90%
    04:00 +7°C° 0 mm 1 m/S 721 mmHg 92%
    05:00 +9°C° 0 mm 1 m/S 721 mmHg 86%
    06:00 +11°C° 0 mm 1 m/S 721 mmHg 81%
    07:00 +12°C° 0 mm 1 m/S 721 mmHg 76%
    08:00 +14°C° 0 mm 1 m/S 721 mmHg 70%
    09:00 +15°C° 0 mm 1 m/S 721 mmHg 64%
    10:00 +17°C° 0 mm 2 m/S 721 mmHg 58%
    11:00 +17°C° 0 mm 2 m/S 720 mmHg 57%
    12:00 +18°C° 0 mm 3 m/S 720 mmHg 56%
    13:00 +19°C° 0 mm 3 m/S 720 mmHg 55%
    14:00 +19°C° 0 mm 3 m/S 720 mmHg 56%
    15:00 +19°C° 0 mm 3 m/S 719 mmHg 57%
    16:00 +18°C° 0 mm 3 m/S 719 mmHg 58%
    17:00 +17°C° 0 mm 3 m/S 719 mmHg 63%
    18:00 +16°C° 0 mm 2 m/S 719 mmHg 69%
    19:00 +15°C° 0 mm 2 m/S 719 mmHg 74%
    20:00 +14°C° 0 mm 1 m/S 720 mmHg 78%
    21:00 +12°C° 0 mm 1 m/S 720 mmHg 83%
    22:00 +10°C° 0 mm 1 m/S 720 mmHg 87%
    23:00 +10°C° 0 mm 1 m/S 720 mmHg 88%

    24 Juni, Sonntag

    Zeit Temperatur Niederschläge Wind Luftdruck Luftfeuchtigkeit
    00:00 +9°C° 0 mm 1 m/S 720 mmHg 89%
    01:00 +9°C° 0 mm 1 m/S 720 mmHg 90%
    02:00 +9°C° 0 mm 1 m/S 720 mmHg 91%
    03:00 +8°C° 0 mm 1 m/S 720 mmHg 92%
    04:00 +7°C° 0 mm 0 m/S 719 mmHg 93%
    05:00 +9°C° 0 mm 1 m/S 719 mmHg 88%
    06:00 +11°C° 0 mm 1 m/S 719 mmHg 83%
    07:00 +13°C° 0 mm 1 m/S 719 mmHg 78%
    08:00 +14°C° 0 mm 1 m/S 719 mmHg 71%
    09:00 +16°C° 0 mm 1 m/S 719 mmHg 65%
    10:00 +17°C° 0 mm 2 m/S 719 mmHg 59%
    11:00 +18°C° 0 mm 2 m/S 719 mmHg 58%
    12:00 +18°C° 0 mm 2 m/S 719 mmHg 57%
    13:00 +19°C° 0 mm 3 m/S 719 mmHg 56%
    14:00 +19°C° 0 mm 3 m/S 718 mmHg 57%
    15:00 +19°C° 0 mm 3 m/S 718 mmHg 58%
    16:00 +19°C° 0 mm 3 m/S 718 mmHg 59%
    17:00 +18°C° 0 mm 3 m/S 718 mmHg 64%
    18:00 +17°C° 0 mm 2 m/S 718 mmHg 69%
    19:00 +16°C° 0 mm 2 m/S 719 mmHg 75%
    20:00 +15°C° 0 mm 1 m/S 719 mmHg 79%
    21:00 +13°C° 0 mm 1 m/S 719 mmHg 83%
    22:00 +12°C° 0 mm 1 m/S 719 mmHg 87%
    23:00 +11°C° 0 mm 1 m/S 719 mmHg 88%
    Mehr zeigen